Location: ????????
(55.3975°N, 38.2844°E)
Time: 05:27:08
(UTC+00:00)

BlueWalker 3 - Pass Details

Date: 14 August 2024
Orbit: 476 x 487 km, 53.2° (Epoch: 08 September)

Event Time Altitude Azimuth Distance (km) Brightness Sun altitude
Exits shadow 22:21:19 23° 116° (ESE) 1,096 3.5 -19.8°
Drops below altitude 10° 22:23:18 10° 91° (E) 1,690 4.7 -19.8°
Sets 22:25:40 0° 80° (E) 2,575 5.9 -19.7°
